Tracking 32139 objects as of 17-Nov-2025
HD Live streaming from Space Station
objects crossing your sky now

STARLINK-34257

Track STARLINK-34257 now!
10-day predictions
STARLINK-34257 is classified as:


NORAD ID: 65225
Int'l Code: 2025-176AD
Perigee: 481.4 km
Apogee: 483.3 km
Inclination: 53.2 °
Period: 94.1 minutes
Semi major axis: 6853 km
RCS: Unknown
Launch date: August 14, 2025
Source: United States (US)
Launch site: AIR FORCE EASTERN TEST RANGE (AFETR)
Your satellite tracking list
Your tracking list is empty




NASA's NSSDC Master Catalog

Two Line Element Set (TLE):
1 65225U 25176AD  25320.30761420  .00053695  00000-0  18118-2 0  9995
2 65225  53.1588 319.2007 0001409  86.1905 273.9256 15.30203179 15705
Source of the keplerian elements: AFSPC